This demonstration page uses our WeatherBlox Daily Observations layout. Learn more.

Hourly Observations for October 1, 2019

Temp ( °F °C ) Dew Point ( °F °C ) Humidity (%) Winds ( mph kmh ) Pressure ( in mb ) Visibility ( mi km ) Precip ( " mm )
12:15 am 00:15 Cloudy 64 18 63 17 94 94 S 6 9 30.18 1022 10 16.09344 0 0
12:35 am 00:35 Cloudy 64 18 63 17 94 94 S 6 9 30.18 1022 10 16.09344 0 0
12:55 am 00:55 Cloudy 64 18 63 17 94 94 S 6 9 30.18 1022 10 16.09344 0 0
1:15 am 01:15 Cloudy 64 18 63 17 94 94 S 7 11 30.18 1022 10 16.09344 0 0
1:35 am 01:35 Cloudy 64 18 63 17 94 94 S 6 9 30.18 1022 10 16.09344 0 0
2:15 am 02:15 Cloudy 64 18 63 17 94 94 S 3 6 30.18 1022 10 16.09344 0 0
2:35 am 02:35 Cloudy 64 18 63 17 94 94 S 6 9 30.18 1022 10 16.09344 0 0
2:55 am 02:55 Cloudy 64 18 63 17 94 94 S 6 9 30.15 1021 10 16.09344 0 0
3:15 am 03:15 Cloudy 64 18 63 17 94 94 S 7 11 30.15 1021 10 16.09344 0 0
3:35 am 03:35 Cloudy 64 18 63 17 94 94 S 6 9 30.15 1021 10 16.09344 0 0
3:55 am 03:55 Cloudy 64 18 63 17 94 94 S 3 6 30.15 1021 10 16.09344 0 0
4:15 am 04:15 Cloudy 64 18 63 17 94 94 S 3 6 30.15 1021 10 16.09344 0 0
4:35 am 04:35 Cloudy 64 18 63 17 94 94 Calm 30.18 1022 10 16.09344 0 0
4:55 am 04:55 Cloudy 64 18 63 17 94 94 S 5 7 30.18 1022 10 16.09344 0 0
5:15 am 05:15 Cloudy 64 18 63 17 94 94 S 5 7 30.18 1022 10 16.09344 0 0
5:35 am 05:35 Cloudy 64 18 63 17 94 94 S 5 7 30.18 1022 10 16.09344 0 0
5:55 am 05:55 Cloudy 64 18 63 17 94 94 S 5 7 30.18 1022 10 16.09344 0 0
6:15 am 06:15 Cloudy 64 18 63 17 94 94 SSW 6 9 30.15 1021 10 16.09344 0 0
6:35 am 06:35 Cloudy 64 18 63 17 94 94 SSW 6 9 30.15 1021 10 16.09344 0 0
6:55 am 06:55 Cloudy 64 18 63 17 94 94 SSW 7 11 30.15 1021 10 16.09344 0 0
7:15 am 07:15 Cloudy 64 18 63 17 94 94 SSW 7 11 30.15 1021 10 16.09344 0 0
7:35 am 07:35 Cloudy 64 18 63 17 94 94 SSW 5 7 30.15 1021 10 16.09344 0 0
7:55 am 07:55 Cloudy 64 18 63 17 94 94 SSW 6 9 30.15 1021 10 16.09344 0 0
8:15 am 08:15 Cloudy 64 18 63 17 94 94 SW 5 7 30.15 1021 10 16.09344 0 0
8:35 am 08:35 Cloudy 64 18 63 17 94 94 S 6 9 30.15 1021 10 16.09344 0 0
8:55 am 08:55 Cloudy 64 18 63 17 94 94 SSW 7 11 30.15 1021 10 16.09344 0 0
9:15 am 09:15 Cloudy 66 19 63 17 88 88 S 6 9 30.15 1021 10 16.09344 0 0
9:35 am 09:35 Cloudy 68 20 63 17 83 83 SW 5 7 30.15 1021 10 16.09344 0 0
9:55 am 09:55 Cloudy 68 20 64 18 88 88 SSW 6 9 30.15 1021 10 16.09344 0 0
10:15 am 10:15 Cloudy 70 21 64 18 83 83 SSW 7 11 30.15 1021 10 16.09344 0 0
10:35 am 10:35 Mostly Cloudy 70 21 64 18 83 83 S 6 9 30.15 1021 10 16.09344 0 0
10:55 am 10:55 Mostly Cloudy 72 22 64 18 78 78 S 5 7 30.15 1021 10 16.09344 0 0
11:15 am 11:15 Partly Cloudy 73 23 66 19 78 78 SSW 6 9 30.15 1021 10 16.09344 0 0
11:35 am 11:35 Sunny 73 23 66 19 78 78 SSW 5 7 30.12 1020 10 16.09344 0 0
11:55 am 11:55 Partly Cloudy 75 24 68 20 78 78 SW 3 6 30.12 1020 10 16.09344 0 0
12:15 pm 12:15 Sunny 77 25 68 20 74 74 S 8 13 30.12 1020 10 16.09344 0 0
12:35 pm 12:35 Sunny 77 25 68 20 74 74 S 8 13 30.12 1020 10 16.09344 0 0
12:55 pm 12:55 Sunny 79 26 68 20 70 70 S 8 13 30.09 1019 10 16.09344 0 0
1:15 pm 13:15 Sunny 81 27 68 20 66 66 SSW 6 9 30.09 1019 10 16.09344 0 0
1:55 pm 13:55 Sunny 81 27 70 21 70 70 S 6 9 30.09 1019 10 16.09344 0 0
2:15 pm 14:15 Sunny 82 28 70 21 66 66 SSW 6 9 30.06 1018 10 16.09344 0 0
2:35 pm 14:35 Sunny 84 29 70 21 62 62 SSW 6 9 30.06 1018 10 16.09344 0 0
2:55 pm 14:55 Sunny 84 29 70 21 62 62 SSW 7 11 30.06 1018 10 16.09344 0 0
3:15 pm 15:15 Sunny 86 30 70 21 59 59 SSW 6 9 30.03 1017 10 16.09344 0 0
3:35 pm 15:35 Sunny 86 30 70 21 59 59 WSW 7 11 30.06 1018 10 16.09344 0 0
3:55 pm 15:55 Sunny 86 30 70 21 59 59 SW 8 13 30.03 1017 10 16.09344 0 0
4:15 pm 16:15 Sunny 86 30 70 21 59 59 SW 7 11 30.03 1017 10 16.09344 0 0
4:35 pm 16:35 Sunny 86 30 70 21 59 59 SW 7 11 30.03 1017 10 16.09344 0 0
4:55 pm 16:55 Sunny 86 30 70 21 59 59 SSW 10 17 30.03 1017 10 16.09344 0 0
5:15 pm 17:15 Sunny 86 30 70 21 59 59 SSW 6 9 30.03 1017 10 16.09344 0 0
5:35 pm 17:35 Sunny 84 29 70 21 62 62 SW 6 9 30.03 1017 10 16.09344 0 0
5:55 pm 17:55 Sunny 84 29 70 21 62 62 SW 7 11 30.03 1017 10 16.09344 0 0
6:15 pm 18:15 Sunny 82 28 72 22 70 70 SW 6 9 30.03 1017 10 16.09344 0 0
6:35 pm 18:35 Partly Cloudy 82 28 72 22 70 70 SW 5 7 30.03 1017 10 16.09344 0 0
6:55 pm 18:55 Partly Cloudy 81 27 72 22 74 74 SSW 3 6 30.03 1017 10 16.09344 0 0
7:15 pm 19:15 Partly Cloudy 81 27 72 22 74 74 SSW 3 6 30 1016 10 16.09344 0 0
7:35 pm 19:35 Clear 79 26 72 22 79 79 SSW 5 7 30 1016 10 16.09344 0 0
7:55 pm 19:55 Clear 79 26 72 22 79 79 SSW 3 6 30 1016 10 16.09344 0 0
8:15 pm 20:15 Clear 79 26 72 22 79 79 SSW 5 7 30 1016 10 16.09344 0 0
8:35 pm 20:35 Clear 77 25 72 22 83 83 SSW 5 7 30 1016 10 16.09344 0 0
8:55 pm 20:55 Clear 77 25 72 22 83 83 SSW 5 7 30.03 1017 10 16.09344 0 0
9:15 pm 21:15 Clear 77 25 70 21 79 79 SSW 5 7 30.03 1017 10 16.09344 0 0
9:35 pm 21:35 Clear 77 25 72 22 83 83 SSW 6 9 30 1016 10 16.09344 0 0
9:55 pm 21:55 Clear 75 24 72 22 89 89 SSW 5 7 30 1016 10 16.09344 0 0
10:15 pm 22:15 Clear 75 24 72 22 89 89 SSW 3 6 30 1016 10 16.09344 0 0
10:35 pm 22:35 Partly Cloudy 73 23 72 22 94 94 SW 3 6 30 1016 10 16.09344 0 0
10:55 pm 22:55 Partly Cloudy 75 24 72 22 89 89 S 5 7 30 1016 10 16.09344 0 0
11:15 pm 23:15 Partly Cloudy 75 24 72 22 89 89 S 3 6 30 1016 10 16.09344 0 0
11:35 pm 23:35 Partly Cloudy 73 23 72 22 94 94 S 5 7 29.97 1015 10 16.09344 0 0
11:55 pm 23:55 Clear 73 23 70 21 89 89 SSW 3 6 29.97 1015 10 16.09344 0 0

Powered by AerisWeather